Location: Rounton
(54.4000°N, 1.3500°W)
Time: 14:45:28
(UTC+00:00)

Transit 4A - Pass Details

Date: 08 December 2021
Orbit: 864 x 981 km, 66.8° (Epoch: 20 January)

Event Time Altitude Azimuth Distance (km) Brightness Sun altitude
Rises 01:57:58 0° 317° (NW) 3,590 - -51.1°
Reaches altitude 10° 02:00:30 10° 320° (NW) 2,661 - -50.8°
Maximum altitude 02:06:43 68° 43° (NE) 1,033 - -50.1°
Drops below altitude 10° 02:13:03 10° 127° (SE) 2,716 - -49.4°
Sets 02:15:39 0° 130° (SE) 3,668 - -49.1°
